BEIDOU-3 M7 (C27)

Last updated on Wed Aug 26 2026 00:04:16 GMT+0000 (Coordinated Universal Time)

1 43107U 18003A 26237.08149631 -.00000032 00000+0 00000+0 0 9993 2 43107 54.2626 299.9084 0003612 104.4708 255.6482 1.86228450 58639
UTC large
Height (km)
Speed (km/s)
/
Latitude / Longitude
Inclination (degrees)
Orbital Period (minutes)
Azimuth
Elevation
Range (km)
Doppler Factor

Next 0 passes for location: London (51.5072 / 0.1276)

No passes found over London.
BEIDOU-3 M7 (C27)